Location: Marsån
(66.4167°N, 22.2833°E)
Time: 10:13:44
(UTC+00:00)

Okean O Rocket - Pass Details

Date: 24 February 2024
Orbit: 619 x 640 km, 98.1° (Epoch: 16 April)

Event Time Altitude Azimuth Distance (km) Brightness Sun altitude
Exits shadow 18:55:46 - 195° (SSW) 2,605 4.6 -21.4°
Reaches altitude 10° 18:57:20 10° 203° (SSW) 2,019 4.1 -21.5°
Maximum altitude 19:01:16 31° 266° (W) 1,108 3.3 -21.9°
Drops below altitude 10° 19:05:12 10° 329° (NNW) 2,019 5.0 -22.2°
Sets 19:07:37 0° 340° (NNW) 2,927 5.8 -22.4°
